铱星星座 134星 (IRIDIUM 134)

导读

IRIDIUM 134(铱星134)是美国于2017年12月23日发射的低轨道通信卫星,隶属于第二代铱星卫星移动通信系统。该系统依托近极圆轨道星座,为全球提供全天候语音通信、数据传输服务,可覆盖地面蜂窝网络难以触及的海洋、极地等区域,支持航海、航空及偏远地区的移动通信需求,单星设计寿命约5到10年,保障了铱星系统的服务连续性与全球覆盖能力。

Basic Information
目录编号:
43075
目录名称:
IRIDIUM 134
国际标识:
2017-083F
轨道中心:
EARTH
卫星名称:
铱星星座 134星
卫星全名:
铱星星座 134星 (IRIDIUM 134)
卫星状态:
在轨 (已飞行3188 天)
发射日期:
2017-12-23 UTC
国别 :
美国 (US)
星等 :
--
This satellite is enrolled in the Space Conjunction Data Service (SCDS) and the current flight risk assessment level is: No High Risk
Orbit Information
数据来源 国际轨道数据 AOE轨道数据
星历时间 2026-09-15T09:23:15+0800
20小时前
查看轨道信息
2026-09-15T23:00:00+0800
7小时前
查看轨道信息
半长轴 7155.805km 7155.805km
偏心率 0.0002241 0.0002016
轨道倾角 86.392° 86.393°
近地点辐角 90.436° 86.669°
升交点赤经 284.498° 284.262°
平近点角 269.710° 320.109°
近地点 776.064km 776.225km
远地点 779.272km 779.111km
周期 100.403分钟 100.403分钟
每日圈数 14.342177 14.342177
Detailed Information
平衡模式:
三轴稳定
覆盖范围:
全球
运营商:
铱星通信公司
运营商所在国:
美国
制造商(研发单位):
阿莱尼亚宇航公司
制造商所在国:
意大利
使用方式:
暂无
Satellite Introduction
铱星(Iridium)是由共66个运作中的通信卫星组成的卫星通信系统。这个系统原本规划77个通信卫星,所以用原子序数为77的铱元素来命名。铱卫星允许人们使用手持型电子设备进行全球性的语音及数据通讯。该卫星仍在工作。
2D Orbit Map
3D Orbit Map
Orbit Altitude Analysis Chart
Orbit Inclination Analysis Chart
Orbit Comprehensive Analysis Chart
View Comprehensive Chart
Conjunction Data List
Event ID Objects TCA Miss Dist (km) Collision Risk Probability Collision Risk Index (CRI) Action
CDM_260917-094103-384104-307522
2026-09-17T
09:41:47+0000
1.886 km
极远距离
3.288441E-6 低风险 0.45
Miss Distance Evolution Trend with All Objects Subscribe to Flight Safety Assessment
Collision Probability Evolution Trend with All Objects Subscribe to Flight Safety Assessment